VE3DVC Weather Reports


Display with metric or nautical units.
time (UTC)temp
F
wind
direction
speed
MPH
gust
MPH
rain 1hr
in
rain 24hr
in
rain mn
in
humidity
%
barometer
mb
20260901124815 72 0 0.0 1.0 0.00 0.00 0.00 91 1014.6
20260901123147 72 0 0.0 0.0 0.00 0.00 0.00 90 1014.7
20260901121948 72 0 0.0 0.0 0.00 0.00 0.00 90 1014.6
20260901115947 71 0 0.0 0.0 0.00 0.00 0.00 91 1014.6
20260901114747 71 0 0.0 0.0 0.00 0.00 0.00 91 1014.4
20260901113547 71 0 0.0 0.0 0.00 0.00 0.00 91 1014.2
20260901112347 71 0 0.0 0.0 0.00 0.00 0.00 90 1014.1
20260901111147 71 0 0.0 0.0 0.00 0.00 0.00 91 1014.0
20260901105315 71 0 0.0 0.0 0.00 0.00 0.00 90 1013.8
20260901104114 71 0 0.0 0.0 0.00 0.00 0.00 90 1013.7
20260901102915 71 0 0.0 0.0 0.00 0.00 0.00 90 1013.6
20260901101338 72 0 0.0 0.0 0.00 0.00 0.00 90 1013.6
20260901100137 72 0 0.0 0.0 0.00 0.00 0.00 90 1013.7
20260901093514 71 0 0.0 0.0 0.00 0.00 0.00 91 1013.5
20260901092315 71 0 0.0 2.0 0.00 0.00 0.00 90 1013.5
20260901091114 71 0 0.0 0.0 0.00 0.00 0.00 90 1013.3
20260901085914 71 0 0.0 1.0 0.00 0.00 0.00 90 1013.4
20260901084714 71 0 0.0 1.0 0.00 0.00 0.00 91 1013.4
20260901083514 70 0 0.0 2.0 0.00 0.00 0.00 90 1013.3
20260901082314 70 0 0.0 2.0 0.00 0.00 0.00 91 1013.3
20260901081114 70 0 0.0 1.0 0.00 0.00 0.00 91 1013.3
20260901075914 70 0 0.0 0.0 0.00 0.00 0.00 91 1013.3
20260901073514 70 0 0.0 0.0 0.00 0.00 0.00 90 1013.3
20260901072314 70 0 0.0 0.0 0.00 0.00 0.00 90 1013.4
20260901070513 70 0 0.0 0.0 0.00 0.00 0.00 90 1013.5
20260901065314 70 0 0.0 1.0 0.00 0.00 0.00 90 1013.7
20260901064113 70 0 0.0 0.0 0.00 0.00 0.00 90 1014.0
20260901062914 70 0 0.0 3.0 0.00 0.00 0.00 90 1014.1
20260901061713 70 0 0.0 0.0 0.00 0.00 0.00 90 1014.1
20260901060513 70 0 0.0 0.0 0.00 0.00 0.00 90 1014.2
20260901055313 70 0 0.0 0.0 0.00 0.00 0.00 90 1014.4
20260901054113 71 0 0.0 0.0 0.00 0.00 0.00 91 1014.4
20260901052232 71 0 0.0 0.0 0.00 0.00 0.00 91 1014.6
20260901051032 71 0 0.0 0.0 0.00 0.00 0.00 91 1014.8
20260901045832 70 0 0.0 0.0 0.00 0.00 0.00 90 1015.0
20260901044633 71 0 0.0 0.0 0.00 0.00 0.00 91 1015.2
20260901043432 71 0 0.0 0.0 0.00 0.00 0.00 91 1015.2
20260901042232 71 0 0.0 0.0 0.00 0.00 0.00 91 1015.1
20260901041032 71 0 0.0 0.0 0.00 0.00 0.00 91 1015.3
20260901035832 71 0 0.0 0.0 0.00 0.00 0.00 91 1015.4
20260901034632 70 0 0.0 0.0 0.00 0.00 0.00 91 1015.4
20260901033433 70 0 0.0 0.0 0.00 0.00 0.00 90 1015.3
20260901031133 70 0 0.0 0.0 0.00 0.00 0.00 90 1015.2
20260901025934 70 0 0.0 0.0 0.00 0.00 0.00 90 1015.5
20260901024733 70 0 0.0 0.0 0.00 0.00 0.00 90 1015.6
20260901023535 70 0 0.0 0.0 0.00 0.00 0.00 90 1015.8
20260901022334 70 0 0.0 0.0 0.00 0.00 0.00 90 1015.9
20260901021133 71 0 0.0 0.0 0.00 0.00 0.00 91 1016.0
20260901015934 71 0 0.0 0.0 0.00 0.00 0.00 91 1016.0
20260901014733 71 0 0.0 0.0 0.00 0.00 0.00 91 1015.8
20260901011133 71 0 0.0 0.0 0.00 0.00 0.00 91 1015.9
20260901005934 71 0 0.0 0.0 0.00 0.00 0.00 90 1016.0
20260901004734 71 0 0.0 0.0 0.00 0.00 0.00 91 1016.0
20260901003533 72 0 0.0 0.0 0.00 0.00 0.00 91 1016.0
20260901002334 72 0 0.0 0.0 0.00 0.00 0.00 90 1016.0
20260901001133 72 0 0.0 0.0 0.00 0.00 0.00 90 1016.1
20260831235934 72 0 0.0 0.0 0.00 0.00 0.00 90 1015.9
20260831234733 72 0 0.0 0.0 0.00 0.00 0.00 90 1016.0
20260831233534 72 0 0.0 0.0 0.00 0.00 0.00 90 1016.2
20260831232334 72 0 0.0 0.0 0.00 0.00 0.00 90 1016.2
20260831231133 73 0 0.0 0.0 0.00 0.00 0.00 90 1016.2
20260831225934 73 0 0.0 0.0 0.00 0.00 0.00 90 1016.0
20260831224734 73 0 0.0 0.0 0.00 0.00 0.00 90 1015.7
20260831223534 73 0 0.0 0.0 0.00 0.00 0.00 90 1015.7
20260831222334 73 0 0.0 0.0 0.00 0.00 0.00 90 1015.8
20260831221134 73 0 0.0 0.0 0.00 0.00 0.00 90 1016.0
20260831215934 74 0 0.0 0.0 0.00 0.00 0.00 90 1016.2
20260831214734 73 0 0.0 0.0 0.00 0.00 0.00 90 1016.6
20260831213533 73 0 0.0 0.0 0.00 0.00 0.00 90 1016.7
20260831212333 73 0 0.0 0.0 0.00 0.00 0.00 90 1016.4
20260831210345 73 0 0.0 0.0 0.00 0.00 0.00 90 1016.6
20260831205145 73 0 0.0 0.0 0.00 0.00 0.00 90 1016.8
20260831203945 73 0 0.0 0.0 0.00 0.00 0.00 90 1016.9
20260831202745 73 0 0.0 0.0 0.00 0.00 0.00 90 1016.7
20260831201545 73 0 0.0 0.0 0.00 0.00 0.00 90 1016.4
20260831200345 73 0 0.0 0.0 0.00 0.00 0.00 90 1015.9
20260831195145 73 0 0.0 0.0 0.00 0.00 0.00 90 1016.6
20260831193945 73 0 0.0 0.0 0.00 0.00 0.00 90 1016.7
20260831192744 73 0 0.0 0.0 0.00 0.00 0.00 90 1017.0
20260831191545 73 0 0.0 0.0 0.00 0.00 0.00 90 1016.8
20260831184536 73 0 0.0 0.0 0.00 0.00 0.00 90 1017.2
20260831183336 73 0 0.0 0.0 0.00 0.00 0.00 90 1017.2
20260831182137 73 0 0.0 0.0 0.00 0.00 0.00 90 1017.3
20260831180936 73 0 0.0 0.0 0.00 0.00 0.00 90 1017.4
20260831175737 73 0 0.0 0.0 0.00 0.00 0.00 90 1017.5
20260831174536 73 0 0.0 1.0 0.00 0.00 0.00 90 1017.8
20260831173337 73 0 0.0 0.0 0.00 0.00 0.00 90 1017.9
20260831172136 73 0 0.0 2.0 0.00 0.00 0.00 90 1017.8
20260831170936 73 0 0.0 0.0 0.00 0.00 0.00 90 1017.7
20260831165736 74 0 0.0 1.0 0.00 0.00 0.00 90 1017.6
20260831163834 74 0 0.0 0.0 0.00 0.00 0.00 90 1017.5
20260831162633 74 0 0.0 0.0 0.00 0.00 0.00 90 1017.4
20260831161434 74 0 0.0 2.0 0.00 0.00 0.00 91 1017.3
20260831160233 73 0 0.0 1.0 0.00 0.00 0.00 90 1017.4
20260831155034 73 0 0.0 1.0 0.00 0.00 0.00 90 1017.5
20260831153833 73 0 0.0 2.0 0.00 0.00 0.00 91 1017.6
20260831152634 72 0 0.0 2.0 0.00 0.00 0.00 91 1017.5
20260831151434 72 0 0.0 1.0 0.00 0.00 0.00 91 1017.6
20260831150234 71 0 0.0 1.0 0.00 0.00 0.00 91 1017.6
20260831145034 71 0 0.0 1.0 0.00 0.00 0.00 91 1017.6
20260831143116 70 0 0.0 0.0 0.00 0.00 0.00 91 1017.8
20260831141917 70 0 0.0 0.0 0.00 0.00 0.00 91 1017.6
20260831140717 69 0 0.0 0.0 0.00 0.00 0.00 91 1017.6
20260831135516 69 0 0.0 0.0 0.00 0.00 0.00 91 1017.4
20260831134317 68 0 0.0 0.0 0.00 0.00 0.00 91 1017.3
20260831133116 68 0 0.0 0.0 0.00 0.00 0.00 91 1017.4
20260831131917 68 0 0.0 0.0 0.00 0.00 0.00 91 1017.5
20260831130717 68 0 0.0 0.0 0.00 0.00 0.00 91 1017.5